Regional Weather Roundup
Issued by NWS

Home | Current Version | Previous Version | Text Only | Print | Product List | Glossary Off
Versions: 1 2 3 4 5 6 7 8 9 10 11 12 13 14 15 16 17 18 19 20 21 22 23 24 25 26 27 28 29 30 31 32 33 34 35 36 37 38 39 40 41 42 43 44 45 46 47 48 49 50

000
ASUS43 KLMK 280210
RWRKY
KENTUCKY REGIONAL WEATHER ROUNDUP
NATIONAL WEATHER SERVICE LOUISVILLE KY
1000 PM EDT WED MAY 27 2015

NOTE "FAIR" INDICATES FEW OR NO CLOUDS BELOW 12,000 FEET
WITH NO SIGNIFICANT WEATHER AND/OR OBSTRUCTIONS TO VISIBILITY.

KYZ001>023-026-027-061>063-070>075-280300-
WESTERN AND SOUTH CENTRAL KENTUCKY

CITY           SKY/WX    TMP DP  RH WIND       PRES   REMARKS
PADUCAH        CLOUDY    70  66  87 S5        30.10R
HENDERSON      CLOUDY    70  63  78 S7        30.10R
OWENSBORO      CLOUDY    70  67  90 S5        30.13R
HOPKINSVILLE   CLOUDY    71  67  90 S3        30.15R
BOWLING GREEN  CLOUDY    69  64  84 SE5       30.16R
GLASGOW        CLOUDY    66  66 100 CALM      30.17R
$$

KYZ024-025-028>034-038-045-046-053-280300-
NORTH CENTRAL KENTUCKY

CITY           SKY/WX    TMP DP  RH WIND       PRES   REMARKS
LOUISVILLE/SDF PTCLDY    68  64  87 SE9       30.14R
LOUISVILLE/LOU MOCLDY    68  63  84 S3        30.14R
FORT KNOX      PTCLDY    66  64  92 SE2       30.14R
$$

KYZ035>037-039>044-047>052-055>060-089>105-280300-
NORTHEAST KENTUCKY

CITY           SKY/WX    TMP DP  RH WIND       PRES   REMARKS
LEXINGTON      CLOUDY    63  62  97 S5        30.16S
COVINGTON      CLOUDY    67  60  78 S9        30.12S
FRANKFORT      MOCLDY    65  61  87 SW5       30.15S
$$

KYZ054-064>069-076>088-106>120-280300-
SOUTHEAST KENTUCKY

CITY           SKY/WX    TMP DP  RH WIND       PRES   REMARKS
JACKSON        CLOUDY    69  60  73 CALM      30.17S
LONDON         CLOUDY    66  58  75 S5        30.19R
SOMERSET       CLOUDY    63  63 100 CALM      30.20S
MIDDLESBORO    CLOUDY    66  65  98 CALM      30.21S
MONTICELLO     CLOUDY    65  65 100 SW3       30.21S
$$




USA.gov is the U.S. government's official web portal to all federal, state and local government web resources and services.